Regional Weather Roundup
Issued by NWS

Home | Current Version | Previous Version | Graphics & Text | Print | Product List | Glossary On
Versions: 1 2 3 4 5 6 7 8 9 10 11 12 13 14 15 16 17 18 19 20 21 22 23 24 25 26 27 28 29 30 31 32 33 34 35 36 37 38 39 40 41 42 43 44 45 46 47 48 49 50
000
ASUS43 KLOT 072012
RWRIL

ILLINOIS REGIONAL WEATHER ROUNDUP
NATIONAL WEATHER SERVICE CHICAGO/ROMEOVILLE IL
200 PM CST WED DEC 07 2016

NOTE: "FAIR" INDICATES FEW OR NO CLOUDS BELOW 12,000 FEET WITH NO
SIGNIFICANT WEATHER AND/OR OBSTRUCTIONS TO VISIBILITY.

* THESE STATIONS ARE NOT UNDER NWS QUALITY CONTROL. THEY ALSO MAY NOT
  REPORT WEATHER SUCH AS PRECIPITATION OR FOG.

ILZ001-002-007-009-015-016-024-072100-
NORTHWEST ILLINOIS

CITY           SKY/WX    TMP DP  RH WIND       PRES   REMARKS
MOLINE         MOSUNNY   28  16  60 W15G23    30.17R WCI  16
STERLING*      PTSUNNY   25  19  78 W21       30.13R WCI  11
SAVANNA*       MOSUNNY   25  16  68 W10G17    30.13R WCI  15
$$

ILZ003-004-008-010-011-017-018-072100-
NORTH CENTRAL ILLINOIS

CITY           SKY/WX    TMP DP  RH WIND       PRES   REMARKS
ROCKFORD       CLOUDY    25  16  68 W15G23    30.09F WCI  13
FREEPORT*      PTSUNNY   23  15  72 W14G22    30.10S WCI  10
ROCHELLE*      MOSUNNY   25  18  76 W15       30.11R WCI  12
DE KALB*       CLOUDY    24  18  77 W15       30.09R WCI  11
$$

ILZ005-006-012>014-019>023-072100-
NORTHEAST ILLINOIS

CITY           SKY/WX    TMP DP  RH WIND       PRES   REMARKS
CHICAGO-OHARE  PTSUNNY   26  18  71 SW18      30.07S WCI  13
CHICAGO-MIDWAY CLOUDY    29  17  61 W15       30.08F WCI  18
AURORA         MOSUNNY   26  19  74 W18       30.10S WCI  13
LANSING*       MOSUNNY   29  23  77 SW15      30.10S WCI  18
JOLIET*        CLOUDY    29  22  74 W10G18    30.12R WCI  20
WAUKEGAN       MOSUNNY   28  19  69 W8        30.02F WCI  20
DUPAGE AIRPORT CLOUDY    25  16  68 W18       30.08F WCI  11
KANKAKEE*      MOSUNNY   31  23  73 W12       30.13S WCI  21
WHEELING       MOSUNNY   27  17  66 W10G17    30.07F WCI  17
MORRIS*        CLOUDY    28  22  76 W14       30.12R WCI  17
ROMEOVILLE*    MOSUNNY   26  23  86 W16       30.11R WCI  14
NORTHERLY ISL    N/A     30  18  60 SW10        N/A  WCI  21
$$

LMZ740>746-072100-
SOUTHERN LAKE MICHIGAN

STATION/POSITION SKY/WX   TEMP    WIND        PRES    VSBY  WAVE
                          AIR SEA DIR/SP/G                  HT/PER
                          (F)     (DEG/KT/KT) (MB)    (MI)  (FT/S)
HARRISON CRIB              30     260/ 18/ 20   N/A
BURNHAM HARBOR             29     240/  7/ 15   N/A
CALUMET HARBOR             29     220/  7/ 11 1017.7F
BURNS HARBOR               32     240/ 17/ 19 1019.3R
MICHIGAN CITY              30     220/ 17/ 21   N/A
$$

ILZ025>027-034>036-040-047-049-050-058-095>099-072100-
WEST-CENTRAL ILLINOIS

CITY           SKY/WX    TMP DP  RH WIND       PRES   REMARKS
QUINCY         PTSUNNY   33  17  51 W15       30.21S WCI  23
GALESBURG*     MOSUNNY   29  19  65 W15       30.17S WCI  18
MACOMB*        SUNNY     31  20  63 W16       30.22R WCI  20
JACKSONVILLE*  CLOUDY    33  19  56 W9        30.20S WCI  25
PITTSFIELD*    CLOUDY    33  17  52 W12       30.22S WCI  24
$$

ILZ028>032-037-038-041>044-048-051>054-059>061-072100-
CENTRAL ILLINOIS

CITY           SKY/WX    TMP DP  RH WIND       PRES   REMARKS
PONTIAC        PTSUNNY   32  24  71 W14G20    30.15R WCI  22
BLOOMINGTON    MOSUNNY   32  21  64 W15       30.14R WCI  22
DECATUR        CLOUDY    34  20  56 W10       30.18R WCI  26
PEORIA         MOSUNNY   31  17  56 W16G24    30.18R WCI  20
LACON*         MOSUNNY   31  19  61 W10       30.15S WCI  22
LINCOLN*       CLOUDY    34  20  56 W6        30.18R WCI  29
SPRINGFIELD    CLOUDY    34  20  56 W13       30.20R WCI  25
TAYLORVILLE    CLOUDY    33  22  64 W9        30.20S WCI  25
$$

ILZ033-039-045-046-055>057-062-063-072100-
EAST-CENTRAL ILLINOIS

CITY           SKY/WX    TMP DP  RH WIND       PRES   REMARKS
CHAMPAIGN      CLOUDY    33  21  61 W15       30.16S WCI  23
RANTOUL*       MOSUNNY   35  26  71 W14       30.15R WCI  25
MATTOON        CLOUDY    33  20  58 W10       30.17S WCI  25
PARIS*         CLOUDY    33  25  72 W9        30.18R WCI  25
$$

ILZ079-100>102-072100-
SOUTHWEST ILLINOIS

CITY           SKY/WX    TMP DP  RH WIND       PRES   REMARKS
ALTON          CLOUDY    36  19  51 SW9       30.23S WCI  29
BELLEVILLE     SUNNY     38  16  40 NW9       30.21S WCI  32
CAHOKIA*       CLOUDY    39  17  41 NW9       30.23R WCI  33
SPARTA*        CLOUDY    37  18  46 NW3       30.23R
$$

ILZ064>066-069>071-074>076-080>082-084>086-088>090-092>094-072100-
SOUTH-CENTRAL ILLINOIS

CITY           SKY/WX    TMP DP  RH WIND       PRES   REMARKS
CARBONDALE     CLOUDY    38  22  52 N8        30.21S WCI  32
CAIRO*         CLOUDY    42  24  47 CALM      30.18F
EFFINGHAM*     CLOUDY    36  23  59 W9        30.21R WCI  29
MARION         CLOUDY    39  23  52 N5        30.20S
CENTRALIA*     CLOUDY    37  24  57 CALM      30.20S
SALEM*         CLOUDY    37  22  55 W9        30.20S WCI  30
METROPOLIS*    CLOUDY    44  21  40 CALM      30.18F
$$

ILZ067-068-072-073-078-083-087-091-072100-
SOUTHEAST ILLINOIS

CITY           SKY/WX    TMP DP  RH WIND       PRES   REMARKS
LAWRENCEVILLE  CLOUDY    37  23  56 NW8       30.19S WCI  31
FLORA*         CLOUDY    38  25  60 NW6       30.20S WCI  33
FAIRFIELD*     CLOUDY    38  24  55 NW3       30.19S
HARRISBURG*    CLOUDY    40  22  48 NW6       30.20S
ROBINSON*      CLOUDY    35  24  64 NW7       30.19S WCI  29
CARMI*         CLOUDY    38  24  57 NW6       30.19R WCI  34
$$

ABBREVIATIONS USED IN REMARKS
   TC - TEMPERATURE IN CELSIUS
  WCI - WIND CHILL INDEX
   HX - HEAT INDEX
  VSB - VISIBILITY
$$





USA.gov is the U.S. government's official web portal to all federal, state and local government web resources and services.